This is the latest recevied weather packets stored in our database for station/object SP2WM. If no packets are shown the sender has not sent any weather packets the latest 10 day(s).
| Time | Temp. | Humidity | Pressure | Rain* | Wind** | Luminosity | Snow |
|---|---|---|---|---|---|---|---|
| 1777817438 | 27.78° C | 22% | 1010.6 hPa | 0 mm | - | - | - |
| 1777814426 | 27.78° C | 24% | 1011.3 hPa | 0 mm | - | - | - |
| 1777813826 | 27.78° C | 22% | 1011.4 hPa | 0 mm | - | - | - |
| 1777811432 | 27.78° C | 28% | 1011.6 hPa | 0 mm | - | - | - |
| 1777810831 | 27.22° C | 27% | 1011.8 hPa | 0 mm | - | - | - |
| 1777810229 | 27.22° C | 28% | 1011.8 hPa | 0 mm | - | - | - |
| 1777809035 | 27.22° C | 27% | 1012 hPa | 0 mm | - | - | - |
| 1777807240 | 26.67° C | 29% | 1012.5 hPa | 0 mm | - | - | - |
| 1777806620 | 26.67° C | 27% | 1012.5 hPa | 0 mm | - | - | - |
| 1777803081 | 26.11° C | 29% | 1013 hPa | 0 mm | - | - | - |
| 1777801221 | 25° C | 31% | 1013.4 hPa | 0 mm | - | - | - |
| 1777800621 | 25° C | 31% | 1013.5 hPa | 0 mm | - | - | - |
| 1777800021 | 24.44° C | 31% | 1013.6 hPa | 0 mm | - | - | - |
| 1777799424 | 24.44° C | 32% | 1013.6 hPa | 0 mm | - | - | - |
| 1777798826 | 24.44° C | 31% | 1013.6 hPa | 0 mm | - | - | - |
| 1777798226 | 24.44° C | 31% | 1013.8 hPa | 0 mm | - | - | - |
| 1777797624 | 23.89° C | 32% | 1013.9 hPa | 0 mm | - | - | - |
| 1777797024 | 23.33° C | 31% | 1013.8 hPa | 0 mm | - | - | - |
| 1777796428 | 23.33° C | 31% | 1013.8 hPa | 0 mm | - | - | - |
| 1777795828 | 23.33° C | 31% | 1013.8 hPa | 0 mm | - | - | - |
| 1777795228 | 22.78° C | 32% | 1013.9 hPa | 0 mm | - | - | - |
| 1777794629 | 22.78° C | 33% | 1013.9 hPa | 0 mm | - | - | - |
| 1777794032 | 22.22° C | 33% | 1014 hPa | 0 mm | - | - | - |
| 1777793432 | 21.67° C | 33% | 1014 hPa | 0 mm | - | - | - |
| 1777792834 | 21.67° C | 34% | 1014 hPa | 0 mm | - | - | - |
* Rain latest hour (hover to see other rain measurements)
** Current wind speed in m/s (hover to see current wind gust speed)